Regional Weather Roundup
Issued by NWS Grand Forks, ND

Home | Current Version | Previous Version | Graphics & Text | Print | Product List | Glossary On
Versions: 1 2 3 4 5 6 7 8 9 10 11 12 13 14 15 16 17 18 19 20 21 22 23 24 25 26 27 28 29 30 31 32 33 34 35 36 37 38 39 40 41 42 43 44 45 46 47 48 49 50
000
ASUS43 KFGF 240231
RWRFGF
PRAIRIE TO PINES  WEATHER ROUNDUP
NATIONAL WEATHER SERVICE EASTERN NORTH DAKOTA/GRAND FORKS ND
900 PM CDT SAT JUL 23 2016

 **SATELLITE DATA USED TO AUGMENT SKY COVER AT AUTOMATED STATIONS**
 *****  WEATHER ACROSS EASTERN NORTH DAKOTA  *****

CITY           SKY/WX    TMP DP  RH WIND       PRES   REMARKS
GRAND FORKS    MOCLDY    70  68  93 SW5       29.70S
GRAND FRKS AFB PTCLDY    70  69  97 SW3       29.71S
GRAND FRKS NWS   N/A     68 N/A N/A W3          N/A
DEVILS LAKE    PTCLDY    75  62  64 W10       29.75S
FARGO          CLOUDY    76  73  91 W7        29.70S
WAHPETON ARPT  CLOUDY    70  63  78 E9G30     29.72R VSB 1/2
$$

 ***** WEATHER ACROSS CENTRAL AND WESTERN NORTH DAKOTA  *****

CITY           SKY/WX    TMP DP  RH WIND       PRES   REMARKS
BISMARCK       CLEAR     79  56  45 NW6       29.83R
MINOT          CLEAR     75  56  51 W16G24    29.80R
JAMESTOWN      PTCLDY    75  66  73 W10       29.78R
MINOT AFB      CLEAR     71  58  64 NW14      29.79R
GARRISON         N/A     72  58  61 NW12      29.84R
WILLISTON      PTCLDY    73  55  53 NW12      29.90R
DICKINSON      CLEAR     73  49  42 NW14      29.91R
HETTINGER      CLEAR     78  43  28 NW14      29.94R
$$

 *****  OTHER AIRPORT OBSERVATIONS IN OUR AREA  *****

CITY           SKY/WX    TMP DP  RH WIND       PRES   REMARKS
WALHALLA       FAIR      72  68  88 SW7       29.69S
GRAFTON AIRPOR MOCLDY    72  70  94 SW7       29.71F
VALLEY CITY AR   N/A     73  73 100 W8        29.79R
CANDO          FAIR      68  63  83 W9        29.76S
CAVALIER APRT  CLOUDY    72  68  88 SW7       29.69S
GWINNER        MOCLDY    79  72  78 NW12      29.77R
SHEYENNE NWR     N/A     80  71  72 NW10      29.95
ROLLA            N/A     68  57  68 W12G17    29.76R
 ***** THE ABOVE OBSERVATIONS ARE NON NWS ARE NOT QUALITY
       CONTROLLED AND MAY MIS-REPORT RAIN FOR SNOW...
$$

  *****  WEATHER ACROSS NORTHERN MINNESOTA  *****

CITY           SKY/WX    TMP DP  RH WIND       PRES   REMARKS
FLAG ISLAND    CLOUDY    72  70  94 CALM      29.69S
WARROAD        CLOUDY    73  70  88 W3        29.71S
ROSEAU         CLOUDY    73  66  78 CALM      29.70F THUNDER
HALLOCK        PTCLDY    72  70  94 W3        29.68S
THF RVR FALLS  CLOUDY    73  72  96 CALM      29.71F
BAUDETTE       CLOUDY    75  69  81 S5        29.71S
WASKISH        CLOUDY    73  66  78 S6        29.72S
CROOKSTON      MOCLDY    72  72 100 NW3       29.72R
STEPHEN NDAWN    N/A     72  68  88 SW3         N/A
GREENBUSH NDAW   N/A     72  66  83 SW3         N/A
$$
  *****  WEATHER ACROSS CENTRAL AND WEST MINNESOTA  *****

CITY           SKY/WX    TMP DP  RH WIND       PRES   REMARKS
FOSSTON        MOCLDY    73  70  88 S5        29.73S
BEMIDJI        CLOUDY    73  70  88 S8        29.73F
PARK RAPIDS    CLOUDY    76  68  76 SE7       29.74F
ELBOW LAKE     FAIR      76  73  92 E8        29.73R
WADENA         CLOUDY    73  70  88 SE8       29.74F
DETROIT LAKES  CLOUDY    75  70  83 CALM      29.74F
MOORHEAD       CLOUDY    73  72  94 NW3       29.72R
FERGUS FALLS   CLOUDY    77  72  83 S9        29.72F
MORRIS MN      CLOUDY    77  73  88 SE8       29.72R
STAPLES        CLOUDY    73  66  78 SE9       29.75F
$$
  *****  WEATHER ELSEWHERE ACROSS MINNESOTA  *****

CITY           SKY/WX    TMP DP  RH WIND       PRES   REMARKS
DULUTH         CLOUDY    65  60  84 E10       29.84F
INTRNTL FALLS  CLEAR     72  65  78 SE7       29.73F
ELY            CLEAR     66  61  82 SE7       29.84F
CLOQUET        CLOUDY    64  57  77 E7        29.83F
WHEATON        CLOUDY    79  75  89 SE9G17    29.72S
BRAINERD       CLOUDY    72  69  90 SE5       29.77F
HIBBING        MOCLDY    68  64  87 SE8       29.80F
ALEXANDRIA     CLOUDY    75  72  90 SE10      29.76F
SAINT CLOUD    PTCLDY    73  72  96 E5        29.76F
MINNEAPOLIS    PTCLDY    75  71  87 SE7       29.78S
$$

  *****  WEATHER ACROSS SOUTH DAKOTA  *****

CITY           SKY/WX    TMP DP  RH WIND       PRES   REMARKS
SIOUX FALLS    PTCLDY    87  73  62 SW5       29.75R HX  94
BROOKINGS      CLEAR     84  78  82 S5        29.75S HX  95
WATERTOWN      PTCLDY    83  73  72 NW12      29.77R
HURON          CLEAR     82  71  69 N13       29.77R
SISSETON         N/A     80  77  90 S7        29.71R
ABERDEEN       CLEAR     80  68  66 NW16      29.79R
MITCHELL       CLEAR     86  75  69 N17       29.76R HX  95
PIERRE         CLEAR     81  58  45 N7        29.84R
MOBRIDGE       CLEAR     78  62  57 N5        29.83R
RAPID CITY     CLEAR     79  45  29 N6        29.97R
$$

  *****  SOME WEATHER IN NEARBY STATES *****

CITY           SKY/WX    TMP DP  RH WIND       PRES   REMARKS
GLASGOW MT     CLEAR     74  49  41 NW10G20   29.96R
GREAT FALLS MT MOCLDY    77  36  22 NW8       30.03R
CHEYENNE WY    CLOUDY    74  51  44 S5        30.13R
SCOTTSBLUFF NE PTCLDY    81  54  39 NE6       29.98R
OMAHA NE       CLOUDY    87  76  69 S14       29.77R HX  97
DES MOINES IA  PTCLDY    84  77  79 S7        29.80S HX  94
DAVENPORT IA   CLOUDY    75  72  90 S6        29.89R
CHICAGO IL     CLOUDY    74  69  85 SE13      29.93F
EAU CLAIRE WI  CLEAR     71  69  93 E8        29.82F
LA CROSSE WI   PTCLDY    74  68  81 S13       29.81F
$$

  *****  SOME NATIONAL WEATHER *****

CITY           SKY/WX    TMP DP  RH WIND       PRES   REMARKS
LA GUARDIA NY  PTCLDY    89  57  33 N9        29.85R
RALEIGH NC     PTCLDY    82  74  76 SW9       29.98R
ATLANTA GA     CLOUDY    82  71  69 NW3       30.01S
NEW ORLEANS LA MOCLDY    86  74  67 NW5       29.95R HX  94
OKLAHOMA CITY  CLEAR     88  68  51 S8        29.88R HX  91
ALBUQUERQUE NM MOCLDY    95  42  16 SW10      30.02R HX  91
SALT LAKE CITY PTCLDY    90  24   9 N10       30.01F
LOS ANGELES CA MOSUNNY   77  64  64 SE10      29.80S
BOISE ID       SUNNY     83  32  16 N12       30.03F
SEATTLE WA     MOSUNNY   71  53  52 NW6       30.21F
$$

*** WEATHER ACROSS MANITOBA...SASKATCHEWAN AND ONTARIO ***
                ***ONTARIO***

CITY           SKY/WX    TMP DP  RH WIND       PRES   REMARKS
GERALDTON      CLOUDY    70  57  64 E7        29.93F
THUNDER BAY    MOCLDY    66  61  82 SE5       29.88F
SIOUX LOOKOUT  MOCLDY    72  63  73 S10G18    29.77F
TORONTO        PTCLDY    79  57  47 N14       29.96R
BIG TROUT LK   CLOUDY    70  55  60 SE9       29.80F
PICKLE LAKE    CLOUDY    68  54  60 SE3       29.85R
DRYDEN         CLOUDY    73  61  64 SE16G23   29.74F
KENORA         CLOUDY    72  66  83 S7        29.71R
$$
                *** MANITOBA***

CITY           SKY/WX    TMP DP  RH WIND       PRES   REMARKS
BRANDON        PTCLDY    68  57  68 W15G23    29.69R
DAUPHIN        MOCLDY    63  59  88 NW8       29.63R
ISLAND LAKE    CLOUDY    66  59  77 CALM      29.71F
PILOT MOUND    NOT AVBL
THE PAS        MOCLDY    64  61  88 NW7       29.65F
THOMPSON       LGT RAIN  63  63 100 CALM      29.72S
WINNIPEG       MOCLDY    70  68  94 S8        29.66F
LYNN LAKE      MOCLDY    64  59  82 MISG      29.71R
CHURCHILL      MOCLDY    63  59  88 N6        29.70R
GILLAM         CLOUDY    64  59  82 SW9       29.76S
$$
                ***SASKATCHEWAN***

CITY           SKY/WX    TMP DP  RH WIND       PRES   REMARKS
ESTEVAN        PTCLDY    66  59  77 NW13      29.85R
KINDERSLEY     PTCLDY    70  57  64 NW5       29.92R
LLOYDMINSTER   MOSUNNY   66  52  59 NW9       29.89R
PRINCE ALBERT  MOCLDY    64  59  82 N3        29.77R
REGINA         PTCLDY    68  57  68 W14       29.85R
YORKTON        PTCLDY    61  57  88 W6        29.76R
N. BATTLEFORD  CLEAR     68  50  52 NW13G22   29.88R
LA RONGE       LGT RAIN  64  61  88 CALM      29.75R
SASKATOON      PTCLDY    70  52  52 NW15G23   29.85R
SWIFT CURRENT  PTCLDY    61  57  88 W6        29.96R
$$
NOTE: THESE ARE AUTOMATED STATIONS WITH LIMITED QUALITY CONTROL
      "FAIR" INDICATES FEW OR NO CLOUDS BELOW 12,000 FEET WITH NO
      SIGNIFICANT WEATHER AND/OR OBSTRUCTIONS TO VISIBILITY.
      SKY/WX - SKY CONDITION AND SIGNIFICANT WEATHER.
      TMP - AIR TEMPERATURE.    DP   - DEWPOINT TEMPERATURE.
      RH  - RELATIVE HUMIDITY.  PRES - PRESSURE.
      HX  - HEAT INDEX.         WCI  - WIND CHILL INDEX.
$




USA.gov is the U.S. government's official web portal to all federal, state and local government web resources and services.